Location: Alpha Ridge Park
(39.3209°N, 76.9128°W)
Time: 02:33:11
(UTC-04:00)

BEESAT - Pass Details

Date: 01 July 2022
Orbit: 700 x 706 km, 98.6° (Epoch: 14 August)

Event Time Altitude Azimuth Distance (km) Brightness Sun altitude
Rises 22:51:25 0° 354° (N) 3,102 ? -19.5°
Reaches altitude 10° 22:54:30 10° 333° (NNW) 2,180 ? -19.9°
Maximum altitude 22:57:16 16° 297° (WNW) 1,822 ? -20.2°
Drops below altitude 10° 23:00:03 10° 261° (W) 2,174 ? -20.5°
Sets 23:03:07 0° 240° (WSW) 3,089 ? -20.8°
